Вернуться в каталог

STARLINK-34854

АктивенСвязьVLEO
NORAD 65337·PAYLOAD·🇺🇸 United States

Запущен Aug 27, 2025 с Cape Canaveral Space Force Station

Loading…

Ближайшие Пролёты (ближайшие 24 часа)

TLE

СвежийSource: CelesTrak SupGP

Эпоха: Sep 14, 2026, 22:32 UTC

1 65337C 25189Q   26257.93937500  .00022753  00000+0  73181-3 0  2575
2 65337  53.1588  46.4368 0001097  80.8775 131.6568 15.31685263    10

Отслеживайте STARLINK-34854 в реальном времени с AllMySat

Download on the App Store